Logansport, IN

7:16 AM EDT on May 25, 2017 (GMT -0400)
Logansport Municipal

Weather History for KGGP - January, 2013

Change the Weather History Date:

Tuesday, January 29, 2013

  Actual Average Record
Temperature  
Mean Temperature 52 °F -  
Max Temperature 59 °F 33 °F 59 °F (2013)
Min Temperature 46 °F 13 °F -9 °F (2014)
Degree Days  
Heating Degree Days 12    
Growing Degree Days 2 (Base 50)    
Moisture  
Dew Point 53 °F    
Average Humidity 94    
Maximum Humidity 100    
Minimum Humidity 82    
Precipitation  
Precipitation 0.51 in - - ()
Sea Level Pressure  
Sea Level Pressure 29.73 in    
Wind  
Wind Speed 15 mph (South)    
Max Wind Speed 25 mph    
Max Gust Speed 32 mph    
Visibility 6 miles    
Events Fog , Rain    
Averages and records for this station are not official NWS values.
T = Trace of Precipitation, MM = Missing Value Source: NWS Daily Summary

Daily Weather History Graph

Daily Weather History Graph

Search for Another Location

Airport or City:

Trip Planner

Search our weather history database for the weather conditions in past years. The results will help you decide how hot, cold, wet, or windy it might be!

Date:

Astronomy

Jan. 29, 2013 Rise Set
Actual Time 7:57 AM EST 5:59 PM EST
Civil Twilight 7:28 AM EST 6:28 PM EST
Nautical Twilight 6:55 AM EST 7:01 PM EST
Astronomical Twilight 6:23 AM EST 7:34 PM EST
Moon 8:56 PM EST (1/29) 8:53 AM EST (1/29)
Length of Visible Light 11h 00m
Length of Day
10h 01m
Waning Gibbous, 94% of the Moon is Illuminated
Jan 29
Waning Gibbous
Feb 3
Last Quarter
Feb 10
New
Feb 17
First Quarter
Feb 25
Full

Hourly Weather History & Observations

Time (EST) Temp. Windchill Dew Point Humidity Pressure Visibility Wind Dir Wind Speed Gust Speed Precip Events Conditions
12:15 AM 46.4 °F 41.5 °F 46.4 °F 100% 29.94 in 0.2 mi South 10.4 mph - N/A Fog Fog
12:35 AM 48.2 °F - 46.4 °F 93% 29.93 in 0.2 mi South 10.4 mph - N/A Fog Fog
12:55 AM 48.2 °F - 48.2 °F 100% 29.93 in 0.2 mi South 11.5 mph - N/A Fog Fog
1:15 AM 50.0 °F - 48.2 °F 94% 29.92 in 0.2 mi South 11.5 mph - N/A Fog Fog
1:35 AM 50.0 °F - 50.0 °F 100% 29.91 in 0.2 mi South 10.4 mph - N/A Fog Fog
1:55 AM 50.0 °F - 50.0 °F 100% 29.90 in 0.2 mi South 11.5 mph - N/A Fog Fog
2:15 AM 50.0 °F - 50.0 °F 100% 29.90 in 0.5 mi South 12.7 mph - N/A Fog Fog
2:35 AM 50.0 °F - 50.0 °F 100% 29.90 in 1.8 mi South 11.5 mph - N/A   Overcast
2:55 AM 51.8 °F - 51.8 °F 100% 29.89 in 2.5 mi South 11.5 mph - N/A   Overcast
3:15 AM 51.8 °F - 51.8 °F 100% 29.88 in 4.0 mi South 13.8 mph - N/A   Overcast
3:35 AM 51.8 °F - 51.8 °F 100% 29.88 in 5.0 mi South 13.8 mph 19.6 mph N/A   Overcast
3:55 AM 51.8 °F - 51.8 °F 100% 29.87 in 5.0 mi South 15.0 mph - N/A   Overcast
4:15 AM 51.8 °F - 51.8 °F 100% 29.86 in 5.0 mi SSW 18.4 mph 23.0 mph N/A   Overcast
4:35 AM 53.6 °F - 51.8 °F 94% 29.85 in 5.0 mi SSW 17.3 mph 21.9 mph N/A   Overcast
4:55 AM 53.6 °F - 51.8 °F 94% 29.83 in 5.0 mi South 17.3 mph - N/A   Overcast
5:15 AM 53.6 °F - 51.8 °F 94% 29.83 in 7.0 mi SSW 18.4 mph 24.2 mph N/A   Overcast
5:35 AM 53.6 °F - 51.8 °F 94% 29.84 in 7.0 mi SSW 19.6 mph 24.2 mph N/A   Overcast
5:55 AM 53.6 °F - 51.8 °F 94% 29.83 in 7.0 mi SSW 21.9 mph 27.6 mph N/A   Overcast
6:15 AM 53.6 °F - 51.8 °F 94% 29.83 in 7.0 mi SSW 21.9 mph 28.8 mph N/A   Overcast
6:35 AM 53.6 °F - 51.8 °F 94% 29.83 in 5.0 mi SSW 20.7 mph 24.2 mph N/A   Overcast
6:55 AM 53.6 °F - 51.8 °F 94% 29.82 in 5.0 mi SSW 19.6 mph - N/A   Overcast
7:15 AM 53.6 °F - 53.6 °F 100% 29.82 in 5.0 mi SSW 21.9 mph 27.6 mph N/A   Overcast
7:35 AM 53.6 °F - 53.6 °F 100% 29.83 in 5.0 mi SSW 18.4 mph 28.8 mph N/A   Overcast
7:55 AM 53.6 °F - 53.6 °F 100% 29.81 in 5.0 mi SSW 18.4 mph 24.2 mph N/A   Overcast
8:15 AM 53.6 °F - 53.6 °F 100% 29.81 in 4.0 mi SSW 18.4 mph - N/A   Overcast
8:35 AM 53.6 °F - 53.6 °F 100% 29.81 in 4.0 mi South 20.7 mph 25.3 mph N/A   Overcast
8:55 AM 53.6 °F - 53.6 °F 100% 29.81 in 5.0 mi SSW 19.6 mph 27.6 mph N/A   Overcast
9:15 AM 53.6 °F - 53.6 °F 100% 29.81 in 4.0 mi South 19.6 mph 23.0 mph N/A   Overcast
9:35 AM 53.6 °F - 53.6 °F 100% 29.81 in 4.0 mi SSW 17.3 mph - N/A   Overcast
9:55 AM 55.4 °F - 53.6 °F 94% 29.81 in 4.0 mi SSW 17.3 mph 26.5 mph N/A   Overcast
10:15 AM 55.4 °F - 53.6 °F 94% 29.82 in 4.0 mi SSW 16.1 mph 21.9 mph N/A   Overcast
10:35 AM 55.4 °F - 53.6 °F 94% 29.81 in 4.0 mi SSW 15.0 mph - N/A   Overcast
10:55 AM 55.4 °F - 53.6 °F 94% 29.80 in 5.0 mi SSW 15.0 mph - N/A   Overcast
11:15 AM 55.4 °F - 53.6 °F 94% 29.80 in 5.0 mi SSW 18.4 mph 24.2 mph N/A   Overcast
11:35 AM 55.4 °F - 53.6 °F 94% 29.80 in 5.0 mi SSW 19.6 mph - N/A   Overcast
11:55 AM 55.4 °F - 53.6 °F 94% 29.79 in 5.0 mi SSW 19.6 mph - N/A   Overcast
12:15 PM 57.2 °F - 53.6 °F 88% 29.79 in 7.0 mi SSW 19.6 mph 25.3 mph N/A   Overcast
12:35 PM 57.2 °F - 53.6 °F 88% 29.77 in 5.0 mi SSW 18.4 mph 27.6 mph N/A   Overcast
12:55 PM 55.4 °F - 53.6 °F 94% 29.75 in 5.0 mi SSW 17.3 mph 25.3 mph N/A Rain Light Rain
1:15 PM 55.4 °F - 53.6 °F 94% 29.74 in 5.0 mi South 20.7 mph - N/A Rain Light Rain
1:35 PM 55.4 °F - 53.6 °F 94% 29.73 in 5.0 mi South 18.4 mph - N/A   Overcast
1:55 PM 57.2 °F - 53.6 °F 88% 29.71 in 5.0 mi South 19.6 mph 26.5 mph N/A Rain Rain
2:15 PM 55.4 °F - 53.6 °F 94% 29.71 in 4.0 mi South 18.4 mph 24.2 mph 0.01 in Rain Light Rain
2:35 PM 55.4 °F - 55.4 °F 100% 29.70 in 3.0 mi South 19.6 mph 24.2 mph 0.06 in Rain Rain
2:55 PM 55.4 °F - 53.6 °F 94% 29.69 in 5.0 mi SSW 19.6 mph 26.5 mph 0.07 in Rain Rain
3:15 PM 55.4 °F - 53.6 °F 94% 29.69 in 5.0 mi South 13.8 mph - 0.01 in Rain Light Rain
3:35 PM 55.4 °F - 53.6 °F 94% 29.69 in 5.0 mi South 16.1 mph - 0.02 in   Overcast
3:55 PM 55.4 °F - 53.6 °F 94% 29.68 in 5.0 mi South 15.0 mph - 0.04 in Rain Light Rain
4:15 PM 55.4 °F - 53.6 °F 94% 29.67 in 4.0 mi South 16.1 mph 21.9 mph 0.05 in Rain Rain
4:35 PM 55.4 °F - 53.6 °F 94% 29.67 in 4.0 mi South 15.0 mph 20.7 mph 0.12 in Rain Heavy Rain
4:55 PM 55.4 °F - 53.6 °F 94% 29.65 in 4.0 mi SSE 10.4 mph - 0.16 in Rain Heavy Rain
5:15 PM 55.4 °F - 53.6 °F 94% 29.66 in 1.0 mi South 11.5 mph - 0.02 in Rain Rain
5:35 PM 55.4 °F - 53.6 °F 94% 29.65 in 7.0 mi SSE 9.2 mph - 0.17 in   Overcast
5:55 PM 55.4 °F - 53.6 °F 94% 29.64 in 10.0 mi South 12.7 mph - 0.17 in   Overcast
6:15 PM 55.4 °F - 53.6 °F 94% 29.64 in 10.0 mi South 13.8 mph - N/A   Overcast
6:35 PM 57.2 °F - 53.6 °F 88% 29.63 in 10.0 mi South 13.8 mph - N/A   Overcast
6:55 PM 57.2 °F - 53.6 °F 88% 29.61 in 10.0 mi SSE 16.1 mph - N/A   Overcast
7:15 PM 55.4 °F - 53.6 °F 94% 29.59 in 10.0 mi SSE 16.1 mph - N/A   Mostly Cloudy
7:35 PM 55.4 °F - 53.6 °F 94% 29.58 in 10.0 mi SSE 16.1 mph 21.9 mph N/A   Mostly Cloudy
7:55 PM 55.4 °F - 53.6 °F 94% 29.57 in 10.0 mi South 16.1 mph 23.0 mph N/A   Mostly Cloudy
8:15 PM 55.4 °F - 53.6 °F 94% 29.55 in 10.0 mi South 18.4 mph 24.2 mph N/A   Mostly Cloudy
8:35 PM 57.2 °F - 53.6 °F 88% 29.55 in 10.0 mi South 17.3 mph 26.5 mph N/A   Mostly Cloudy
8:55 PM 55.4 °F - 53.6 °F 94% 29.53 in 10.0 mi South 18.4 mph 24.2 mph N/A Rain Light Rain
9:15 PM 57.2 °F - 53.6 °F 88% 29.51 in 7.0 mi South 18.4 mph 24.2 mph 0.04 in Rain Light Rain
9:35 PM 57.2 °F - 53.6 °F 88% 29.49 in 10.0 mi South 19.6 mph 26.5 mph 0.04 in   Overcast
9:55 PM 59.0 °F - 53.6 °F 82% 29.48 in 10.0 mi South 21.9 mph 31.1 mph 0.04 in   Overcast
10:15 PM 57.2 °F - 55.4 °F 94% 29.46 in 10.0 mi South 25.3 mph 32.2 mph N/A Rain Light Rain
10:35 PM 59.0 °F - 55.4 °F 88% 29.43 in 10.0 mi South 23.0 mph 31.1 mph 0.03 in Rain Light Rain
10:55 PM 59.0 °F - 55.4 °F 88% 29.41 in 10.0 mi South 20.7 mph 26.5 mph 0.03 in   Mostly Cloudy
11:15 PM 59.0 °F - 55.4 °F 88% 29.40 in 10.0 mi South 17.3 mph 26.5 mph N/A   Mostly Cloudy
11:35 PM 59.0 °F - 55.4 °F 88% 29.37 in 10.0 mi SSE 19.6 mph - N/A   Overcast
11:55 PM 59.0 °F - 55.4 °F 88% 29.36 in 10.0 mi South 20.7 mph 28.8 mph N/A   Mostly Cloudy